TimeCDT,TemperatureF,Dew PointF,Humidity,Sea Level PressureIn,VisibilityMPH,Wind Direction,Wind SpeedMPH,Gust SpeedMPH,PrecipitationIn,Events,Conditions,WindDirDegrees,DateUTC
12:15 AM,68.0,57.2,68,30.03,10.0,SSE,11.5,-,0.00,,Scattered Clouds,160,2013-06-14 05:15:00
12:35 AM,66.2,60.8,83,30.03,8.0,South,10.4,-,0.00,,Mostly Cloudy,170,2013-06-14 05:35:00
12:55 AM,64.4,62.6,94,30.01,9.0,SSE,8.1,-,0.00,,Mostly Cloudy,150,2013-06-14 05:55:00
1:15 AM,64.4,62.6,94,30.00,10.0,ESE,6.9,-,0.00,,Partly Cloudy,110,2013-06-14 06:15:00
1:35 AM,64.4,62.6,94,29.98,10.0,East,8.1,-,0.00,,Scattered Clouds,80,2013-06-14 06:35:00
1:55 AM,64.4,62.6,94,29.97,10.0,East,6.9,-,0.00,,Partly Cloudy,90,2013-06-14 06:55:00
2:15 AM,62.6,60.8,94,29.98,10.0,SE,5.8,-,0.00,,Partly Cloudy,140,2013-06-14 07:15:00
2:35 AM,64.4,60.8,88,29.96,10.0,SE,11.5,-,0.00,,Partly Cloudy,140,2013-06-14 07:35:00
2:55 AM,64.4,60.8,88,29.96,10.0,SSE,11.5,-,0.00,,Clear,150,2013-06-14 07:55:00
3:15 AM,64.4,60.8,88,29.96,10.0,SE,9.2,-,0.00,,Clear,140,2013-06-14 08:15:00
3:35 AM,62.6,60.8,94,29.94,10.0,ESE,8.1,-,0.00,,Partly Cloudy,120,2013-06-14 08:35:00
3:55 AM,62.6,60.8,94,29.93,10.0,SE,8.1,-,0.00,,Clear,130,2013-06-14 08:55:00
4:15 AM,62.6,60.8,94,29.93,10.0,ESE,10.4,-,0.00,,Clear,120,2013-06-14 09:15:00
4:35 AM,62.6,60.8,94,29.92,10.0,ESE,9.2,-,0.00,,Clear,120,2013-06-14 09:35:00
4:55 AM,62.6,60.8,94,29.92,10.0,SE,10.4,-,0.00,,Clear,130,2013-06-14 09:55:00
5:15 AM,62.6,60.8,94,29.93,10.0,ESE,10.4,-,0.00,,Mostly Cloudy,120,2013-06-14 10:15:00
5:35 AM,62.6,60.8,94,29.94,10.0,ESE,11.5,-,0.00,,Mostly Cloudy,120,2013-06-14 10:35:00
5:55 AM,62.6,60.8,94,29.94,10.0,ESE,11.5,-,0.00,,Overcast,120,2013-06-14 10:55:00
6:15 AM,62.6,60.8,94,29.93,10.0,ESE,12.7,-,0.00,,Mostly Cloudy,120,2013-06-14 11:15:00
6:35 AM,62.6,60.8,94,29.94,10.0,ESE,11.5,-,0.00,,Partly Cloudy,120,2013-06-14 11:35:00
6:55 AM,62.6,60.8,94,29.95,10.0,ESE,10.4,-,0.00,,Clear,120,2013-06-14 11:55:00
7:15 AM,62.6,60.8,94,29.95,10.0,SE,9.2,-,0.00,,Clear,130,2013-06-14 12:15:00
7:35 AM,64.4,60.8,88,29.95,10.0,ESE,12.7,-,0.00,,Mostly Cloudy,120,2013-06-14 12:35:00
7:55 AM,64.4,60.8,88,29.94,10.0,ESE,13.8,-,0.00,,Overcast,120,2013-06-14 12:55:00
8:15 AM,66.2,60.8,83,29.94,10.0,SE,16.1,-,0.00,,Overcast,130,2013-06-14 13:15:00
8:35 AM,66.2,60.8,83,29.93,10.0,ESE,18.4,24.2,0.00,,Overcast,120,2013-06-14 13:35:00
8:55 AM,66.2,60.8,83,29.92,10.0,ESE,19.6,25.3,0.00,,Overcast,120,2013-06-14 13:55:00
9:15 AM,66.2,60.8,83,29.92,10.0,SE,20.7,26.5,0.00,,Partly Cloudy,130,2013-06-14 14:15:00
9:35 AM,66.2,60.8,83,29.92,10.0,SE,16.1,-,0.00,,Clear,130,2013-06-14 14:35:00
9:55 AM,66.2,60.8,83,29.92,10.0,SE,18.4,-,0.00,,Clear,130,2013-06-14 14:55:00
10:15 AM,66.2,60.8,83,29.87,10.0,ESE,19.6,25.3,0.00,,Clear,120,2013-06-14 15:15:00
10:35 AM,66.2,60.8,83,29.92,10.0,SE,10.4,21.9,0.00,,Scattered Clouds,140,2013-06-14 15:35:00
10:55 AM,68.0,62.6,83,29.93,10.0,SE,6.9,-,0.00,,Partly Cloudy,130,2013-06-14 15:55:00
11:15 AM,69.8,60.8,73,29.91,10.0,ESE,12.7,-,0.00,,Clear,110,2013-06-14 16:15:00
11:35 AM,69.8,60.8,73,29.82,10.0,ESE,21.9,29.9,0.00,,Clear,110,2013-06-14 16:35:00
11:55 AM,69.8,60.8,73,29.84,10.0,SE,21.9,26.5,0.00,,Clear,130,2013-06-14 16:55:00
12:15 PM,73.4,60.8,65,29.85,10.0,SE,25.3,-,0.00,,Clear,140,2013-06-14 17:15:00
12:35 PM,73.4,60.8,65,29.84,10.0,SE,18.4,26.5,0.00,,Scattered Clouds,140,2013-06-14 17:35:00
12:55 PM,75.2,60.8,61,29.86,10.0,SSE,16.1,26.5,0.00,,Scattered Clouds,160,2013-06-14 17:55:00
1:15 PM,75.2,60.8,61,29.85,10.0,SSE,17.3,23.0,0.00,,Mostly Cloudy,150,2013-06-14 18:15:00
1:35 PM,73.4,60.8,65,29.77,10.0,SE,23.0,28.8,0.00,,Partly Cloudy,130,2013-06-14 18:35:00
1:55 PM,78.8,62.6,57,29.78,10.0,SE,23.0,31.1,0.00,,Clear,140,2013-06-14 18:55:00
2:15 PM,80.6,62.6,54,29.80,10.0,SSE,18.4,24.2,0.00,,Clear,150,2013-06-14 19:15:00
2:35 PM,80.6,64.4,58,29.80,10.0,SSE,17.3,-,0.00,,Mostly Cloudy,150,2013-06-14 19:35:00
2:55 PM,80.6,64.4,58,29.80,10.0,SE,17.3,21.9,0.00,,Mostly Cloudy,140,2013-06-14 19:55:00
3:15 PM,80.6,64.4,58,29.80,10.0,SSE,16.1,21.9,0.00,,Overcast,150,2013-06-14 20:15:00
3:35 PM,80.6,64.4,58,29.80,10.0,SSE,16.1,-,0.00,,Mostly Cloudy,150,2013-06-14 20:35:00
3:55 PM,80.6,62.6,54,29.79,10.0,South,15.0,-,0.00,,Mostly Cloudy,180,2013-06-14 20:55:00
4:15 PM,80.6,62.6,54,29.80,10.0,South,17.3,-,0.00,,Overcast,170,2013-06-14 21:15:00
4:35 PM,78.8,64.4,61,29.79,10.0,SE,13.8,-,0.00,,Overcast,140,2013-06-14 21:35:00
4:55 PM,78.8,64.4,61,29.79,10.0,SSE,13.8,21.9,0.00,,Mostly Cloudy,160,2013-06-14 21:55:00
5:15 PM,78.8,64.4,61,29.78,10.0,SSE,12.7,18.4,0.00,,Overcast,160,2013-06-14 22:15:00
5:35 PM,78.8,66.2,65,29.78,10.0,SSE,11.5,-,0.00,,Mostly Cloudy,150,2013-06-14 22:35:00
5:55 PM,78.8,66.2,65,29.78,10.0,SSE,9.2,-,0.00,,Overcast,150,2013-06-14 22:55:00
6:15 PM,78.8,66.2,65,29.78,10.0,SE,9.2,-,0.00,,Mostly Cloudy,140,2013-06-14 23:15:00
6:35 PM,78.8,66.2,65,29.77,10.0,SE,11.5,-,0.00,,Mostly Cloudy,130,2013-06-14 23:35:00
6:55 PM,78.8,68.0,69,29.77,10.0,ESE,8.1,-,0.00,,Mostly Cloudy,120,2013-06-14 23:55:00
7:15 PM,78.8,68.0,69,29.77,10.0,ESE,6.9,-,0.00,,Mostly Cloudy,120,2013-06-15 00:15:00
7:35 PM,78.8,69.8,74,29.77,10.0,ESE,4.6,-,0.00,,Mostly Cloudy,120,2013-06-15 00:35:00
7:55 PM,78.8,69.8,74,29.77,10.0,SE,4.6,-,0.00,,Mostly Cloudy,130,2013-06-15 00:55:00
8:15 PM,78.8,69.8,74,29.78,10.0,Calm,Calm,-,0.00,,Scattered Clouds,0,2013-06-15 01:15:00
8:35 PM,78.8,69.8,74,29.78,10.0,Calm,Calm,-,0.00,,Mostly Cloudy,0,2013-06-15 01:35:00
8:55 PM,78.8,69.8,74,29.78,10.0,Calm,Calm,-,0.00,,Mostly Cloudy,0,2013-06-15 01:55:00
9:15 PM,75.2,69.8,83,29.79,10.0,WNW,5.8,-,0.00,,Mostly Cloudy,300,2013-06-15 02:15:00
9:35 PM,75.2,69.8,83,29.80,10.0,NW,9.2,-,0.00,,Scattered Clouds,320,2013-06-15 02:35:00
9:55 PM,73.4,68.0,83,29.81,10.0,NW,9.2,-,0.00,,Partly Cloudy,320,2013-06-15 02:55:00
10:15 PM,73.4,66.2,78,29.82,10.0,NW,9.2,-,0.00,,Clear,320,2013-06-15 03:15:00
10:35 PM,73.4,66.2,78,29.84,10.0,NW,9.2,-,0.00,,Clear,320,2013-06-15 03:35:00
10:55 PM,71.6,66.2,83,29.85,10.0,NW,9.2,-,0.00,,Clear,320,2013-06-15 03:55:00
11:15 PM,71.6,66.2,83,29.85,10.0,NW,9.2,-,0.00,,Clear,320,2013-06-15 04:15:00
11:35 PM,71.6,66.2,83,29.85,10.0,NW,8.1,-,0.00,,Clear,310,2013-06-15 04:35:00
11:55 PM,69.8,66.2,88,29.85,10.0,NW,9.2,-,0.00,,Clear,320,2013-06-15 04:55:00